Location: Doux
(49.5045°N, 4.4321°E)
Time: 13:45:34
(UTC+00:00)

Cosmos 1908 - Pass Details

Date: 23 May 2024
Orbit: 466 x 481 km, 82.5° (Epoch: 18 June)

Event Time Altitude Azimuth Distance (km) Brightness Sun altitude
Rises 00:12:16 0° 340° (NNW) 2,517 7.8 -19.5°
Reaches altitude 10° 00:14:33 10° 328° (NNW) 1,634 6.4 -19.4°
Maximum altitude 00:17:36 27° 269° (W) 935 4.4 -19.3°
Enters shadow 00:17:45 27° 265° (W) 937 4.3 -19.3°
